Location: Del Amo
(33.8464°N, 118.2104°W)
Time: 03:41:02
(UTC+00:00)

S-56A Canister/Altair - Pass Details

Date: 21 September 2024
Orbit: 636 x 2487 km, 38.9° (Epoch: 05 October)

Event Time Altitude Azimuth Distance (km) Brightness Sun altitude
Rises 04:34:37 0° 290° (WNW) 3,443 11.9 -33.6°
Reaches altitude 10° 04:36:46 10° 291° (WNW) 2,667 11.1 -34.0°
Enters shadow 04:42:31 74° 318° (NW) 1,245 8.5 -35.0°
Maximum altitude 04:43:13 83° 20° (NNE) 1,250 - -35.1°
Drops below altitude 10° 04:53:14 10° 109° (ESE) 4,019 - -36.9°
Sets 04:57:11 0° 110° (ESE) 5,297 - -37.6°
